Regional Weather Roundup
Issued by NWS

Home | Current Version | Previous Version | Graphics & Text | Print | Product List | Glossary On
Versions: 1 2 3 4 5 6 7 8 9 10 11 12 13 14 15 16 17 18 19 20 21 22 23 24 25 26 27 28 29 30 31 32 33 34 35 36 37 38 39 40 41 42 43 44 45 46 47 48 49 50
000
ASUS43 KLOT 292358
RWRIL

ILLINOIS REGIONAL WEATHER ROUNDUP
NATIONAL WEATHER SERVICE CHICAGO/ROMEOVILLE IL
700 PM CDT FRI AUG 29 2014

NOTE: "FAIR" INDICATES FEW OR NO CLOUDS BELOW 12,000 FEET WITH NO
SIGNIFICANT WEATHER AND/OR OBSTRUCTIONS TO VISIBILITY.

* THESE STATIONS ARE NOT UNDER NWS QUALITY CONTROL. THEY ALSO MAY NOT
  REPORT WEATHER SUCH AS PRECIPITATION OR FOG.

ILZ001-002-007-009-015-016-024-300100-
NORTHWEST ILLINOIS

CITY           SKY/WX    TMP DP  RH WIND       PRES   REMARKS
MOLINE         CLOUDY    80  71  74 SE6       29.81S HX  84
6HR MIN TEMP:  80; 6HR MAX TEMP:  87;

$$

ILZ003-004-008-010-011-017-018-300100-
NORTH CENTRAL ILLINOIS

CITY           SKY/WX    TMP DP  RH WIND       PRES   REMARKS
ROCKFORD       NOT AVBL
$$

ILZ005-006-012>014-019>023-300100-
NORTHEAST ILLINOIS

CITY           SKY/WX    TMP DP  RH WIND       PRES   REMARKS
CHICAGO-OHARE  MOCLDY    82  70  66 S14       29.88S HX  86
6HR MIN TEMP:  82; 6HR MAX TEMP:  86;

CHICAGO-MIDWAY MOCLDY    83  73  72 SE10G21   29.89S HX  89
6HR MIN TEMP:  83; 6HR MAX TEMP:  88;

AURORA         PTCLDY    75  66  73 SE3       29.88F
6HR MIN TEMP:  75; 6HR MAX TEMP:  86; 6HR PCP: TRACE;

WAUKEGAN       PTCLDY    76  70  82 SE13G23   29.87S
6HR MIN TEMP:  76; 6HR MAX TEMP:  84;

DUPAGE AIRPORT PTCLDY    80  73  79 S8        29.87F HAZE    HX  84
6HR MIN TEMP:  80; 6HR MAX TEMP:  87; 6HR PCP: TRACE;

WHEELING       PTCLDY    82  72  71 SE10      29.89S HX  87
6HR MIN TEMP:  82; 6HR MAX TEMP:  87;

NORTHERLY ISL    N/A     77  72  84 SE12        N/A
$$

LMZ740>746-300100-
SOUTHERN LAKE MICHIGAN

STATION/POSITION SKY/WX   TEMP    WIND        PRES    VSBY  WAVE
                          AIR SEA DIR/SP/G                  HT/PER
                          (F)     (DEG/KT/KT) (MB)    (MI)  (FT/S)
SOUTHERN BUOY              71 69  150/ 14/ 16 1012.2F         2/ 4
WAUKEGAN HARBOR            75     170/ 15/ 18   N/A
HARRISON CRIB              76     130/ 17/ 19   N/A
BURNHAM HARBOR             76     130/  6/ 13   N/A
CALUMET HARBOR             80     140/ 10/ 14 1011.4F
MICHIGAN CITY              77     130/  9/ 13   N/A
MICHIGAN CITY 6N           75 72  170/ 14/ 17   N/A           1/ 2
ST. JOSEPH                 74 71  160/  8/ 12   N/A           1/ 3
$$

ILZ025>027-034>036-040-047-049-050-058-095>099-300100-
WEST-CENTRAL ILLINOIS

CITY           SKY/WX    TMP DP  RH WIND       PRES   REMARKS
QUINCY         MOCLDY    73  71  93 SE5       29.84R
$$

ILZ028>032-037-038-041>044-048-051>054-059>061-300100-
CENTRAL ILLINOIS

CITY           SKY/WX    TMP DP  RH WIND       PRES   REMARKS
PEORIA         NOT AVBL
SPRINGFIELD    CLEAR     83  68  60 S9        29.86R HX  86
6HR MIN TEMP:  83; 6HR MAX TEMP:  89;

TAYLORVILLE    NOT AVBL
$$

ILZ033-039-045-046-055>057-062-063-300100-
EAST-CENTRAL ILLINOIS

CITY           SKY/WX    TMP DP  RH WIND       PRES   REMARKS
CHAMPAIGN      CLEAR     81  69  67 S9        29.90S HX  84
MATTOON        CLEAR     82  69  64 S5        29.90S HX  85
$$

ILZ079-100>102-300100-
SOUTHWEST ILLINOIS

CITY           SKY/WX    TMP DP  RH WIND       PRES   REMARKS
CAHOKIA*       PTCLDY    85  66  53 S7        29.85S HX  87
$$

ILZ064>066-069>071-074>076-080>082-084>086-088>090-092>094-300100-
SOUTH-CENTRAL ILLINOIS

CITY           SKY/WX    TMP DP  RH WIND       PRES   REMARKS
CARBONDALE     PTCLDY    81  67  62 SW18G26   29.91R HX  83
6HR MIN TEMP:  81; 6HR MAX TEMP:  89;

$$

ILZ067-068-072-073-078-083-087-091-300100-
SOUTHEAST ILLINOIS

CITY           SKY/WX    TMP DP  RH WIND       PRES   REMARKS
LAWRENCEVILLE  PTCLDY    82  71  69 SE6       29.93R HX  86
$$

ABBREVIATIONS USED IN REMARKS
   TC - TEMPERATURE IN CELSIUS
  WCI - WIND CHILL INDEX
   HX - HEAT INDEX
  VSB - VISIBILITY
$$



USA.gov is the U.S. government's official web portal to all federal, state and local government web resources and services.